Glonass Operational
NORAD ID: 37829
Int'l Code: 2011-055A
Perigee: 19,116.7 km
Apogee: 19,157.4 km
Inclination: 64.6 °
Period: 675.7 minutes
Semi major axis: 25508 km
Launch date: October 2, 2011
Source: Commonwealth of Independent States (former USSR) (CIS)
SV:
Comments: COSMOS 2474 is a Glonass M satellite.
Two Line Element Set (TLE):
1 37829U 11055A 13144.20912949 .00000022 00000-0 00000+0 0 4932
2 37829 064.6199 234.5144 0007975 262.2011 159.3135 02.13101959 12776
Source: AFSPC
NASA's NSSDC Master Catalog entry for COSMOS 2474 (GLONASS)